Weather History for KPSC - October, 2011

Change the Weather History Date:

Monday, October 3, 2011

  Actual Average Record
Temperature  
Mean Temperature 62 °F 57 °F  
Max Temperature 72 °F 72 °F 82 °F (1996)
Min Temperature 51 °F 41 °F 32 °F (1999)
Degree Days  
Heating Degree Days 3 8  
Month to date heating degree days 5 24  
Since 1 July heating degree days 59 135  
Cooling Degree Days 0 0  
Month to date cooling degree days 3 0  
Year to date cooling degree days 632 709  
Growing Degree Days 13 (Base 50)    
Moisture  
Dew Point 47 °F    
Average Humidity 59    
Maximum Humidity 77    
Minimum Humidity 41    
Precipitation  
Precipitation 0.00 in 0.02 in 0.32 in (2009)
Month to date precipitation T 0.06  
Year to date precipitation 5.37 5.94  
Snow  
Snow 0.00 in - - ()
Snow Depth 0.00 in    
Sea Level Pressure  
Sea Level Pressure 29.80 in    
Wind  
Wind Speed 3 mph (SSW)    
Max Wind Speed 9 mph    
Max Gust Speed 10 mph    
Visibility 10 miles    
Events      
T = Trace of Precipitation, MM = Missing Value Source: NWS Daily Summary

Daily Weather History Graph

Daily Weather History Graph

Search for Another Location

Airport or City:

Trip Planner

Search our weather history database for the weather conditions in past years. The results will help you decide how hot, cold, wet, or windy it might be!

Date:

Astronomy

Oct. 03, 2011 Rise Set
Actual Time 6:57 AM PDT 6:32 PM PDT
Civil Twilight 6:27 AM PDT 7:02 PM PDT
Nautical Twilight 5:52 AM PDT 7:37 PM PDT
Astronomical Twilight 5:17 AM PDT 8:12 PM PDT
Moon 2:17 PM PDT (10/3) 11:24 PM PDT (10/3)
Length of Visible Light 12h 35m
Length of Day
11h 35m
Waxing Crescent, 46% of the Moon is Illuminated
Oct 3
Waxing Crescent
Oct 3
First Quarter
Oct 11
Full
Oct 19
Last Quarter
Oct 26
New

Hourly Weather History & Observations

Time (PDT) Temp. Dew Point Humidity Pressure Visibility Wind Dir Wind Speed Gust Speed Precip Events Conditions
12:53 AM 62.1 °F 48.9 °F 62% 29.77 in 10.0 mi Calm Calm - N/A   Clear
1:53 AM 57.9 °F 48.9 °F 72% 29.77 in 10.0 mi Calm Calm - N/A   Clear
2:53 AM 59.0 °F 48.0 °F 67% 29.77 in 10.0 mi Calm Calm - N/A   Clear
3:53 AM 57.0 °F 46.9 °F 69% 29.78 in 10.0 mi Calm Calm - N/A   Clear
4:53 AM 55.9 °F 45.0 °F 67% 29.80 in 10.0 mi South 6.9 mph - N/A   Clear
5:53 AM 59.0 °F 46.0 °F 62% 29.81 in 10.0 mi South 9.2 mph - N/A   Clear
6:53 AM 57.0 °F 46.0 °F 67% 29.82 in 10.0 mi South 3.5 mph - N/A   Clear
7:53 AM 60.1 °F 46.9 °F 62% 29.83 in 10.0 mi SSW 4.6 mph - N/A   Clear
8:53 AM 63.0 °F 48.9 °F 60% 29.84 in 10.0 mi East 4.6 mph - N/A   Clear
9:53 AM 64.0 °F 48.0 °F 56% 29.84 in 10.0 mi ESE 5.8 mph - N/A   Clear
10:53 AM 66.0 °F 46.9 °F 50% 29.83 in 10.0 mi Calm Calm - N/A   Clear
11:53 AM 68.0 °F 46.9 °F 47% 29.82 in 10.0 mi Calm Calm - N/A   Clear
12:53 PM 68.0 °F 46.0 °F 45% 29.82 in 10.0 mi Variable 3.5 mph - N/A   Clear
1:53 PM 70.0 °F 46.0 °F 42% 29.80 in 10.0 mi SW 3.5 mph - N/A   Clear
2:53 PM 71.1 °F 48.0 °F 44% 29.80 in 10.0 mi NNW 3.5 mph - N/A   Clear
3:53 PM 71.1 °F 46.9 °F 42% 29.79 in 10.0 mi North 3.5 mph - N/A   Scattered Clouds
4:53 PM 71.1 °F 46.9 °F 42% 29.78 in 10.0 mi Calm Calm - N/A   Clear
6:53 PM 63.0 °F 46.9 °F 56% 29.79 in 10.0 mi SSW 5.8 mph - N/A   Clear
7:53 PM 62.1 °F 46.0 °F 56% 29.78 in 10.0 mi SW 5.8 mph - N/A   Clear
8:53 PM 60.1 °F 46.0 °F 60% 29.79 in 10.0 mi SW 3.5 mph - N/A   Clear
9:53 PM 55.9 °F 48.0 °F 75% 29.79 in 10.0 mi Calm Calm - N/A   Partly Cloudy
10:53 PM 57.9 °F 45.0 °F 62% 29.78 in 10.0 mi SSW 6.9 mph - N/A   Clear
11:53 PM 60.1 °F 45.0 °F 57% 29.77 in 10.0 mi SSW 8.1 mph - N/A   Clear